Location: Central Coast NSW, Australia
(33.2407°S, 151.4316°E)
Time: 03:21:50
(UTC+11:00)

Hubble Space Telescope - Pass Details

Date: 02 April 2019
Orbit: 536 x 540 km, 28.5° (Epoch: 17 October)

Event Time Altitude Azimuth Distance (km) Brightness Sun altitude
Exits shadow 04:58:32 25° 45° (NE) 1,105 2.6 -27.4°
Drops below altitude 10° 05:00:58 10° 75° (ENE) 1,801 4.2 -26.9°
Sets 05:03:25 0° 85° (E) 2,693 5.5 -26.4°
